This demonstration page uses our WeatherBlox Daily Observations layout. Learn more.

Left ArrowRight Arrow

38.80484, -77.04692

Hourly Observations for August 28, 2021

Temp ( °F °C ) Dew Point ( °F °C ) Humidity (%) Winds ( mph kmh ) Pressure ( in mb ) Visibility ( mi km ) Precip ( " mm )
12:52 am 00:52 Cloudy 77 25 72 22.2 85 85 S 3 6 30.14 1021 10 16 N/A
1:52 am 01:52 Cloudy 77 25 73 22.8 88 88 SW 3 6 30.13 1020 10 16 N/A
2:52 am 02:52 Cloudy 78 25.6 73 22.8 85 85 N N/A 30.11 1020 10 16 N/A
3:52 am 03:52 Cloudy with Mist and Fog 77 25 73 22.8 88 88 NW 5 7 30.11 1020 5 8 N/A
4:52 am 04:52 Mostly Cloudy 76 24.4 72 22.2 88 88 NNW 5 7 30.11 1020 7 11 N/A
5:52 am 05:52 Mostly Cloudy 76 24.4 72 22.2 88 88 NNW 5 7 30.12 1020 7 11 N/A
6:52 am 06:52 Partly Cloudy 77 25 72 22.2 85 85 NE 8 13 30.14 1021 8 13 N/A
7:52 am 07:52 Mostly Sunny 79 26.1 72 22.2 79 79 N 3 6 30.16 1022 9 14 N/A
8:52 am 08:52 Mostly Sunny 81 27.2 72 22.2 74 74 N 3 6 30.17 1022 9 14 N/A
9:52 am 09:52 Mostly Sunny 83 28.3 73 22.8 72 72 N 5 7 30.18 1022 9 14 N/A
10:52 am 10:52 Mostly Sunny 85 29.4 72 22.2 65 65 NW 6 9 30.18 1022 9 14 N/A
11:52 am 11:52 Mostly Sunny 87 30.6 71 21.7 59 59 NNW 6 9 30.18 1022 8 13 N/A
12:52 pm 12:52 Partly Cloudy 89 31.7 72 22.2 57 57 NNE 3 6 30.17 1022 7 11 N/A
1:52 pm 13:52 Partly Cloudy 91 32.8 72 22.2 54 54 undefined N/A 30.16 1021 10 16 N/A
2:52 pm 14:52 Partly Cloudy 91 32.8 73 22.8 56 56 ENE 7 11 30.14 1021 10 16 N/A
3:52 pm 15:52 Partly Cloudy 90 32.2 73 22.8 58 58 ENE 5 7 30.14 1021 10 16 N/A
4:52 pm 16:52 Partly Cloudy 90 32.2 72 22.2 56 56 ENE 9 15 30.13 1020 10 16 N/A
5:52 pm 17:52 Mostly Sunny 87 30.6 75 23.9 67 67 NE 15 24 30.14 1021 10 16 N/A
6:52 pm 18:52 Mostly Sunny 84 28.9 73 22.8 70 70 NE 13 20 30.15 1021 10 16 N/A
7:52 pm 19:52 Partly Cloudy 81 27.2 72 22.2 74 74 ENE 13 20 30.16 1022 10 16 N/A
8:52 pm 20:52 Partly Cloudy 80 26.7 72 22.2 76 76 ENE 14 22 30.17 1022 10 16 N/A
9:20 pm 21:20 Mostly Cloudy 79 26.1 72 22.2 79 79 ENE 12 19 30.19 1022 10 16 N/A
9:40 pm 21:40 Mostly Cloudy 79 26.1 71 21.7 77 77 NE 10 17 30.20 1023 10 16 N/A
9:52 pm 21:52 Cloudy 79 26.1 72 22.2 79 79 NE 13 20 30.21 1023 10 16 N/A
10:52 pm 22:52 Cloudy 78 25.6 71 21.7 79 79 ENE 10 17 30.22 1024 10 16 N/A
11:52 pm 23:52 Cloudy 77 25 70 21.1 79 79 NE 8 13 30.23 1024 10 16 N/A

Powered by AerisWeather